Regional Weather Roundup
Issued by NWS

Home | Current Version | Previous Version | Text Only | Print | Product List | Glossary On
Versions: 1 2 3 4 5 6 7 8 9 10 11 12 13 14 15 16 17 18 19 20 21 22 23 24 25 26 27 28
000
ASUS45 KPSR 171210
RWRAZ

ARIZONA HOURLY REGIONAL WEATHER ROUNDUP
NATIONAL WEATHER SERVICE PHOENIX AZ
500 AM MST TUE JAN 17 2017

NOTE: FAIR INDICATES FEW OR NO CLOUDS BELOW 12,000 FEET WITH NO
SIGNIFICANT WEATHER AND/OR OBSTRUCTIONS TO VISIBILITY.

AZZ001>003-036-171300-
NORTHWEST ARIZONA

CITY           SKY/WX    TMP DP  RH WIND       PRES   REMARKS
KINGMAN        CLEAR     33  20  58 E7        30.09F WCI  27
6HR MIN TEMP:  33; 6HR MAX TEMP:  41;

$$

AZZ004>008-015-016-018-171300-
NORTH CENTRAL ARIZONA

CITY           SKY/WX    TMP DP  RH WIND       PRES   REMARKS
GRAND CANYON   CLEAR     23  22  96 NE3       30.09S
6HR MIN TEMP:  20; 6HR MAX TEMP:  26;

WILLIAMS       CLOUDY    25  21  86 SE3       30.07S
PRESCOTT       CLOUDY    34  34 100 NW3       30.06S FOG
6HR MIN TEMP:  30; 6HR MAX TEMP:  34;

FLAGSTAFF      CLOUDY    25  23  92 E3        30.06F
6HR MIN TEMP:  24; 6HR MAX TEMP:  28;

PAYSON         CLEAR     36  32  87 NE7       30.06F WCI  30
PAGE           PTCLDY    33  25  72 CALM      30.12S
6HR MIN TEMP:  33; 6HR MAX TEMP:  39;

$$

AZZ009>014-017-171300-
NORTHEAST ARIZONA

CITY           SKY/WX    TMP DP  RH WIND       PRES   REMARKS
WINSLOW        PTCLDY    31  29  92 CALM      30.08S
6HR MIN TEMP:  31; 6HR MAX TEMP:  37;

SAINT JOHNS    CLOUDY    36  35  96 CALM      30.05F
6HR MIN TEMP:  33; 6HR MAX TEMP:  38;

SHOW LOW       CLOUDY    32  32 100 N5        30.07S WCI  27
$$

AZZ023-171300-
GREATER PHOENIX AREA

CITY           SKY/WX    TMP DP  RH WIND       PRES   REMARKS
PHOENIX        PTCLDY    47  42  83 CALM      30.01S
6HR MIN TEMP:  47; 6HR MAX TEMP:  53;

BUCKEYE        PTCLDY    41  41 100 N7        30.03S
LUKE AFB       CLEAR     44  42  93 CALM      30.01S
6HR MIN TEMP:  44; 6HR MAX TEMP:  48;

DEER VALLEY    CLEAR     45  41  86 CALM      30.00F
6HR MIN TEMP:  45; 6HR MAX TEMP:  50;

SCOTTSDALE     CLEAR     43  40  89 CALM      30.02F
6HR MIN TEMP:  43; 6HR MAX TEMP:  52;

MESA-GATEWAY   CLEAR     43  39  87 VRB5      30.02S
$$

AZZ027-028-171300-
SOUTHWEST MARICOPA COUNTY AND PINAL COUNTY

CITY           SKY/WX    TMP DP  RH WIND       PRES   REMARKS
CASA GRANDE    CLEAR     40  39  97 SE5       30.03S FOG
6HR MIN TEMP:  40; 6HR MAX TEMP:  47;

$$

AZZ503-504-507>509-171300-
SOUTHEAST ARIZONA

CITY           SKY/WX    TMP DP  RH WIND       PRES   REMARKS
TUCSON         CLEAR     41  39  93 SE5       30.03F
6HR MIN TEMP:  41; 6HR MAX TEMP:  47;

DAVIS-MONTHAN  CLEAR     39  39 100 SE7       30.02F WCI  34
6HR MIN TEMP:  39; 6HR MAX TEMP:  45;

NOGALES        CLEAR     35  32  88 CALM      30.01S
6HR MIN TEMP:  34; 6HR MAX TEMP:  46;

SIERRA VISTA   CLEAR     34  32  94 CALM      30.02F
6HR MIN TEMP:  33; 6HR MAX TEMP:  39;

DOUGLAS        CLEAR     34  33  96 N8        30.01F WCI  27
6HR MIN TEMP:  30; 6HR MAX TEMP:  36;

SAFFORD        PTCLDY    35  34  96 CALM      30.03F
6HR MIN TEMP:  34; 6HR MAX TEMP:  40;

$$

AZZ020-021-025-026-031-171300-
SOUTHWEST ARIZONA

CITY           SKY/WX    TMP DP  RH WIND       PRES   REMARKS
YUMA           CLEAR     49  29  46 N8        30.04S
6HR MIN TEMP:  46; 6HR MAX TEMP:  54;

$$

CAZ031-033-041-043-047-048-061-171300-
SOUTHERN CALIFORNIA

CITY           SKY/WX    TMP DP  RH WIND       PRES   REMARKS
DOWNTOWN L.A.  CLEAR     48  44  86 CALM      30.06R
6HR MIN TEMP:  48; 6HR MAX TEMP:  54;

L.A. AIRPORT   CLEAR     50  47  89 NE3       30.06S
6HR MIN TEMP:  48; 6HR MAX TEMP:  54;

SAN DIEGO      PTCLDY    51  47  86 CALM      30.07S
6HR MIN TEMP:  51; 6HR MAX TEMP:  56;

BURBANK        CLEAR     44  34  67 CALM      30.06R
6HR MIN TEMP:  43; 6HR MAX TEMP:  51;

ONTARIO        CLEAR     45  35  68 N5        30.05S
6HR MIN TEMP:  42; 6HR MAX TEMP:  59;

RIVERSIDE      CLEAR     38  33  82 NE7       30.07R WCI  33
6HR MIN TEMP:  35; 6HR MAX TEMP:  50;

PALM SPRINGS   CLEAR     46  31  55 NW8       30.09S
6HR MIN TEMP:  44; 6HR MAX TEMP:  58;

EL CENTRO NAS  CLEAR     45  39  79 W9        30.07F
6HR MIN TEMP:  43; 6HR MAX TEMP:  50;

IMPERIAL       CLEAR     43  40  89 W7        30.05F
6HR MIN TEMP:  43; 6HR MAX TEMP:  51;

BLYTHE         CLEAR     44  33  65 CALM      30.07S
6HR MIN TEMP:  43; 6HR MAX TEMP:  50;

NEEDLES        CLEAR     50  24  36 N9        30.10R
6HR MIN TEMP:  49; 6HR MAX TEMP:  54;

$$

NVZ020-UTZ003-171300-
SOUTHERN NEVADA-UTAH

CITY           SKY/WX    TMP DP  RH WIND       PRES   REMARKS
LAS VEGAS      CLEAR     38  23  55 S5        30.13S WCI  34
6HR MIN TEMP:  38; 6HR MAX TEMP:  47;

SALT LAKE CITY PTCLDY    20  16  84 N3        30.28S
6HR MIN TEMP:  20; 6HR MAX TEMP:  23;

$$

NMZ009-TXZ055-171300-
NEW MEXICO-WEST TEXAS

CITY           SKY/WX    TMP DP  RH WIND       PRES   REMARKS
ALBUQUERQUE    CLOUDY    38  37  97 N7        30.11S WCI  33
6HR MIN TEMP:  38; 6HR MAX TEMP:  41; 6HR PCP:  0.01;

EL PASO        PTCLDY    42  35  76 N13       30.03S
6HR MIN TEMP:  40; 6HR MAX TEMP:  47;

$$


........................KEY........................
SKY/WX - SKY CONDITION/WEATHER
TMP    - TEMPERATURE IN FAHRENHEIT
DP     - DEW POINT IN FAHRENHEIT
RH     - RELATIVE HUMIDITY IN PERCENT
WIND   - DIRECTION AND SPEED IN MILES PER HOUR (MPH)
VRB    - VARIABLE WIND DIRECTION
PRES   - MEAN SEA LEVEL PRESSURE IN INCHES OF MERCURY
         F - FALLING PRESSURE   R - RISING PRESSURE
         S - STEADY PRESSURE
VSB    - VISIBILITY IN MILES
HX     - HEAT INDEX IN FAHRENHEIT
WCI    - WIND CHILL INDEX IN FAHRENHEIT
TC     - TEMPERATURE IN CELSIUS WHICH IS ALSO KNOWN AS
         TEMPERATURE IN CENTIGRADE
AFB    - AIR FORCE BASE
         LUKE AFB IS LUKE AIR FORCE BASE
         DAVIS-MONTHAN IS DAVIS-MONTHAN AIR FORCE BASE
NAS    - NAVAL AIR STATION
         EL CENTRO NAS IS EL CENTRO NAVAL AIR STATION
N/A    - NOT AVAILABLE





USA.gov is the U.S. government's official web portal to all federal, state and local government web resources and services.